Regional Weather Roundup
Issued by NWS

Home | Current Version | Previous Version | Text Only | Print | Product List | Glossary Off
Versions: 1 2 3 4 5 6 7 8 9 10 11 12 13 14 15 16 17 18 19 20 21 22 23 24 25 26 27 28 29 30 31 32 33 34 35 36 37 38 39 40 41 42 43 44 45 46 47 48 49 50

000
ASUS43 KFSD 281910
RWRSD

WEATHER ROUNDUP FOR SOUTH DAKOTA
NATIONAL WEATHER SERVICE SIOUX FALLS SD
200 PM CDT WED JUN 28 2017

NOTE: "FAIR" INDICATES FEW OR NO CLOUDS BELOW 12,000 FEET WITH NO
SIGNIFICANT WEATHER AND/OR OBSTRUCTIONS TO VISIBILITY.


SDZ001>005-009-010-012>017-282000-
NORTHWEST AND NORTH CENTRAL SOUTH DAKOTA

CITY           SKY/WX    TMP DP  RH WIND       PRES   REMARKS
BUFFALO          N/A     81  31  16 N10G17    29.71F
FAITH            N/A     81  34  18 VRB7G18   29.74S
MOBRIDGE       SUNNY     84  34  16 NW14G23   29.66R
$$

SDZ012>016-024>037-041>051-057-063-072>074-282000-
SOUTHWEST AND SOUTH CENTRAL SOUTH DAKOTA

CITY           SKY/WX    TMP DP  RH WIND       PRES   REMARKS
RAPID CTY ARPT SUNNY     79  48  33 MISG      29.79S
PIERRE         SUNNY     80  55  42 NW15      29.68S
CUSTER         MOSUNNY   75  40  28 W13G18    29.89F
ELLSWORTH AFB  SUNNY     79  46  31 N10       29.78F
PHILIP         SUNNY     82  53  36 NW9       29.73F
PINE RIDGE     SUNNY     81  52  36 VRB6      29.81F
SPEARFISH      FAIR      75  46  35 N8G15     29.83S
WINNER         FAIR      88  57  34 NW17G24   29.70S
$$

SDZ004>011-016>023-039-040-282000-
NORTHEAST SOUTH DAKOTA

CITY           SKY/WX    TMP DP  RH WIND       PRES   REMARKS
ABERDEEN       MOSUNNY   80  62  54 NW13      29.60S
WATERTOWN      SUNNY     77  62  59 NW15      29.60R
BROOKINGS      SUNNY     80  63  55 NW16G23   29.61R
SISSETON         N/A     76  64  66 NW23G30   29.53R
$$

SDZ017-020-022-023-036>040-048>070-282000-
SOUTHEAST SOUTH DAKOTA

CITY           SKY/WX    TMP DP  RH WIND       PRES   REMARKS
SIOUX FALLS    MOSUNNY   80  67  64 W12       29.62S
HURON          SUNNY     84  61  45 NW15G28   29.61S
CHAMBERLAIN    MOSUNNY   85  61  44 NW16G24   29.67S
MITCHELL       MOSUNNY   86  57  37 NW21      29.62S
YANKTON        MOSUNNY   82  66  58 W8        29.64S
$$

ABBREVIATIONS USED IN REMARKS
   TC - TEMPERATURE IN CELSIUS
  WCI - WIND CHILL INDEX
   HX - HEAT INDEX
  VSB - VISIBILITY





USA.gov is the U.S. government's official web portal to all federal, state and local government web resources and services.